Location: Estes Par
(40.3770°N, 105.5210°W)
Time: 05:41:03
(UTC-06:00)

Vanguard 1 - Visible Passes

Search period start: 21 July 2018 00:00
Search period end: 31 July 2018 00:00
Orbit: 650 x 3833 km, 34.2° (Epoch: 21 July)

Date Brightness Start Highest point End Pass type
(mag) Time Alt. Az. Time Alt. Az. Time Alt. Az.
21 Jul 11.0 04:43:36 15° SW 04:45:19 17° SSW 04:49:18 10° SSE visible
21 Jul 11.0 22:00:54 10° SSW 22:06:59 24° SSE 22:07:46 23° SSE visible
22 Jul 11.3 05:04:13 10° SW 05:06:12 12° SSW 05:08:25 10° S visible
22 Jul 10.6 22:21:14 10° SW 22:27:54 30° SSE 22:28:12 30° SSE visible
23 Jul 10.4 22:41:54 10° SW 22:48:31 36° S 22:48:31 36° S visible
24 Jul 10.4 23:02:46 10° WSW 23:08:43 39° SSW 23:08:43 39° SSW visible
25 Jul 11.3 21:01:14 10° SW 21:10:10 31° SSE 21:15:46 10° ESE visible
25 Jul 10.6 23:23:46 10° WSW 23:28:51 36° SW 23:28:51 36° SW visible
26 Jul 11.0 21:21:49 10° SW 21:31:10 38° SSE 21:36:09 13° ESE visible
26 Jul 11.0 23:44:51 10° WSW 23:48:52 30° WSW 23:48:52 30° WSW visible
27 Jul 10.7 21:42:40 10° WSW 21:52:07 44° S 21:56:07 20° ESE visible
28 Jul 11.4 00:05:59 10° W 00:08:50 23° WSW 00:08:50 23° WSW visible
28 Jul 10.5 22:03:43 10° WSW 22:13:03 49° S 22:16:01 28° ESE visible
29 Jul 11.9 00:27:09 10° W 00:28:44 16° WSW 00:28:44 16° WSW visible
29 Jul 10.3 22:24:53 10° WSW 22:33:58 52° S 22:35:53 39° SE visible
30 Jul 12.2 00:48:23 10° W 00:48:35 11° W 00:48:35 11° W visible
30 Jul 10.1 22:46:08 10° WSW 22:54:51 52° S 22:55:42 49° SSE visible
